| time (UTC) | temp F | wind direction | speed MPH | gust MPH | rain 1hr in | rain 24hr in | rain mn in | humidity % | barometer mb |
| 20260507040538 | 51 | 266 | 5.0 | 13.0 | 0.00 | 0.10 | 0.00 | 97 | 1007.7 |
| 20260507040056 | 51 | 185 | 6.0 | 13.0 | 0.00 | 0.10 | 0.00 | 97 | 1007.4 |
| 20260507035538 | 51 | 212 | 5.0 | 13.0 | 0.00 | 0.10 | 0.10 | 97 | 1007.4 |
| 20260507035038 | 51 | 182 | 7.0 | 13.0 | 0.00 | 0.10 | 0.10 | 97 | 1007.4 |
| 20260507034550 | 51 | 223 | 6.0 | 15.0 | 0.00 | 0.10 | 0.10 | 97 | 1007.4 |
| 20260507034037 | 51 | 188 | 6.0 | 15.0 | 0.00 | 0.10 | 0.10 | 97 | 1007.5 |
| 20260507033541 | 51 | 197 | 7.0 | 15.0 | 0.00 | 0.10 | 0.10 | 97 | 1007.6 |
| 20260507033047 | 51 | 181 | 5.0 | 15.0 | 0.00 | 0.10 | 0.10 | 97 | 1007.7 |
| 20260507032536 | 51 | 186 | 6.0 | 15.0 | 0.00 | 0.10 | 0.10 | 97 | 1007.8 |
| 20260507032038 | 51 | 220 | 5.0 | 17.0 | 0.00 | 0.10 | 0.10 | 97 | 1007.9 |
| 20260507031546 | 52 | 217 | 6.0 | 17.0 | 0.00 | 0.10 | 0.10 | 97 | 1007.4 |
| 20260507031037 | 52 | 202 | 6.0 | 16.0 | 0.00 | 0.10 | 0.10 | 97 | 1007.4 |
| 20260507030538 | 52 | 205 | 7.0 | 20.0 | 0.00 | 0.10 | 0.10 | 97 | 1007.5 |
| 20260507030044 | 52 | 169 | 7.0 | 20.0 | 0.00 | 0.10 | 0.10 | 97 | 1007.8 |
| 20260507025535 | 52 | 175 | 8.0 | 18.0 | 0.00 | 0.10 | 0.10 | 97 | 1007.6 |
| 20260507025038 | 52 | 198 | 9.0 | 24.0 | 0.00 | 0.10 | 0.10 | 97 | 1007.5 |
| 20260507024542 | 52 | 211 | 9.0 | 26.0 | 0.00 | 0.10 | 0.10 | 97 | 1007.6 |
| 20260507024037 | 52 | 221 | 8.0 | 26.0 | 0.00 | 0.10 | 0.10 | 97 | 1007.5 |
| 20260507023538 | 52 | 175 | 8.0 | 19.0 | 0.00 | 0.10 | 0.10 | 96 | 1007.6 |
| 20260507023101 | 52 | 200 | 9.0 | 19.0 | 0.00 | 0.10 | 0.10 | 97 | 1007.6 |
| 20260507022538 | 52 | 171 | 8.0 | 17.0 | 0.00 | 0.10 | 0.10 | 96 | 1007.5 |
| 20260507022038 | 52 | 227 | 8.0 | 16.0 | 0.00 | 0.10 | 0.10 | 96 | 1007.6 |
| 20260507021552 | 52 | 216 | 8.0 | 16.0 | 0.00 | 0.10 | 0.10 | 96 | 1007.8 |
| 20260507021036 | 52 | 218 | 6.0 | 20.0 | 0.00 | 0.10 | 0.10 | 96 | 1007.9 |
| 20260507020536 | 52 | 221 | 6.0 | 20.0 | 0.00 | 0.10 | 0.10 | 96 | 1008.0 |
| 20260507020048 | 52 | 190 | 7.0 | 22.0 | 0.00 | 0.10 | 0.10 | 96 | 1008.1 |
| 20260507015534 | 52 | 200 | 8.0 | 22.0 | 0.00 | 0.10 | 0.10 | 96 | 1008.1 |
| 20260507015036 | 53 | 177 | 8.0 | 18.0 | 0.00 | 0.10 | 0.10 | 96 | 1008.0 |
| 20260507014557 | 53 | 192 | 7.0 | 21.0 | 0.00 | 0.10 | 0.10 | 96 | 1007.9 |
| 20260507014037 | 53 | 182 | 8.0 | 21.0 | 0.00 | 0.10 | 0.10 | 96 | 1007.8 |
| 20260507013535 | 52 | 165 | 10.0 | 17.0 | 0.00 | 0.10 | 0.10 | 96 | 1007.9 |
| 20260507013109 | 52 | 192 | 8.0 | 18.0 | 0.00 | 0.10 | 0.10 | 96 | 1008.1 |
| 20260507012536 | 52 | 257 | 7.0 | 18.0 | 0.00 | 0.10 | 0.10 | 96 | 1008.1 |
| 20260507012036 | 52 | 233 | 8.0 | 18.0 | 0.00 | 0.10 | 0.10 | 96 | 1008.1 |
| 20260507011549 | 52 | 188 | 8.0 | 19.0 | 0.00 | 0.10 | 0.10 | 96 | 1008.2 |
| 20260507011036 | 52 | 174 | 7.0 | 19.0 | 0.00 | 0.10 | 0.10 | 96 | 1008.4 |
| 20260507010536 | 52 | 185 | 8.0 | 19.0 | 0.00 | 0.10 | 0.10 | 96 | 1008.5 |
| 20260507010042 | 52 | 217 | 8.0 | 19.0 | 0.00 | 0.10 | 0.10 | 96 | 1008.6 |
| 20260507005534 | 53 | 162 | 7.0 | 19.0 | 0.00 | 0.10 | 0.10 | 96 | 1008.5 |
| 20260507005036 | 53 | 184 | 7.0 | 19.0 | 0.00 | 0.10 | 0.10 | 96 | 1008.4 |
| 20260507004540 | 53 | 182 | 6.0 | 18.0 | 0.00 | 0.10 | 0.10 | 96 | 1008.6 |
| 20260507004036 | 53 | 215 | 7.0 | 18.0 | 0.00 | 0.10 | 0.10 | 96 | 1008.4 |
| 20260507003536 | 53 | 211 | 7.0 | 18.0 | 0.00 | 0.10 | 0.10 | 96 | 1008.5 |
| 20260507003042 | 53 | 195 | 6.0 | 17.0 | 0.00 | 0.10 | 0.10 | 96 | 1008.3 |
| 20260507002536 | 53 | 193 | 8.0 | 17.0 | 0.00 | 0.10 | 0.10 | 96 | 1008.2 |
| 20260507002036 | 53 | 191 | 8.0 | 17.0 | 0.00 | 0.10 | 0.10 | 96 | 1008.1 |
| 20260507001555 | 53 | 167 | 7.0 | 17.0 | 0.00 | 0.10 | 0.10 | 96 | 1008.2 |
| 20260507001035 | 53 | 194 | 7.0 | 18.0 | 0.00 | 0.10 | 0.10 | 96 | 1008.2 |
| 20260507000535 | 53 | 190 | 7.0 | 17.0 | 0.00 | 0.10 | 0.10 | 96 | 1008.2 |
| 20260507000051 | 53 | 189 | 8.0 | 17.0 | 0.00 | 0.10 | 0.10 | 96 | 1008.2 |
| 20260506235537 | 53 | 176 | 6.0 | 20.0 | 0.00 | 0.10 | 0.10 | 96 | 1008.2 |
| 20260506235035 | 53 | 178 | 5.0 | 20.0 | 0.00 | 0.10 | 0.10 | 96 | 1008.3 |
| 20260506234541 | 53 | 177 | 6.0 | 25.0 | 0.00 | 0.10 | 0.10 | 95 | 1008.3 |
| 20260506234038 | 53 | 199 | 7.0 | 25.0 | 0.00 | 0.10 | 0.10 | 96 | 1008.3 |
| 20260506233539 | 53 | 227 | 8.0 | 16.0 | 0.00 | 0.10 | 0.10 | 96 | 1008.3 |
| 20260506233048 | 53 | 184 | 7.0 | 16.0 | 0.00 | 0.10 | 0.10 | 95 | 1008.2 |
| 20260506232536 | 53 | 180 | 7.0 | 15.0 | 0.00 | 0.10 | 0.10 | 95 | 1008.2 |
| 20260506232035 | 53 | 184 | 7.0 | 14.0 | 0.00 | 0.10 | 0.10 | 95 | 1008.2 |
| 20260506231547 | 53 | 211 | 8.0 | 16.0 | 0.00 | 0.10 | 0.10 | 96 | 1008.2 |
| 20260506231034 | 53 | 151 | 7.0 | 16.0 | 0.01 | 0.10 | 0.10 | 95 | 1008.1 |
| 20260506230536 | 53 | 198 | 7.0 | 14.0 | 0.05 | 0.10 | 0.10 | 95 | 1008.2 |
| 20260506230045 | 53 | 183 | 8.0 | 14.0 | 0.06 | 0.10 | 0.10 | 95 | 1008.2 |
| 20260506225539 | 53 | 186 | 7.0 | 21.0 | 0.07 | 0.10 | 0.10 | 95 | 1008.2 |
| 20260506225039 | 54 | 161 | 8.0 | 22.0 | 0.08 | 0.10 | 0.10 | 95 | 1008.2 |
| 20260506224543 | 54 | 169 | 10.0 | 22.0 | 0.08 | 0.10 | 0.10 | 95 | 1008.2 |
| 20260506224037 | 54 | 201 | 9.0 | 21.0 | 0.09 | 0.10 | 0.10 | 95 | 1008.2 |
| 20260506223537 | 54 | 167 | 8.0 | 20.0 | 0.09 | 0.10 | 0.10 | 95 | 1008.1 |
| 20260506223058 | 54 | 166 | 9.0 | 22.0 | 0.10 | 0.10 | 0.10 | 95 | 1008.0 |
| 20260506222538 | 54 | 187 | 11.0 | 21.0 | 0.10 | 0.10 | 0.10 | 95 | 1008.0 |
| 20260506222037 | 54 | 202 | 8.0 | 22.0 | 0.10 | 0.10 | 0.10 | 94 | 1008.0 |
| 20260506221549 | 54 | 176 | 11.0 | 22.0 | 0.10 | 0.10 | 0.10 | 94 | 1008.0 |
| 20260506221037 | 54 | 165 | 10.0 | 23.0 | 0.09 | 0.09 | 0.09 | 94 | 1008.1 |
| 20260506220537 | 54 | 193 | 10.0 | 23.0 | 0.05 | 0.05 | 0.05 | 94 | 1008.3 |
| 20260506220049 | 54 | 201 | 11.0 | 21.0 | 0.03 | 0.03 | 0.03 | 94 | 1008.2 |
| 20260506215537 | 54 | 148 | 9.0 | 26.0 | 0.02 | 0.02 | 0.02 | 93 | 1008.5 |
| 20260506215037 | 54 | 205 | 8.0 | 26.0 | 0.02 | 0.02 | 0.02 | 93 | 1008.5 |
| 20260506214545 | 55 | 193 | 8.0 | 22.0 | 0.02 | 0.02 | 0.02 | 92 | 1008.6 |
| 20260506214037 | 55 | 217 | 7.0 | 22.0 | 0.01 | 0.01 | 0.01 | 93 | 1008.5 |
| 20260506213535 | 55 | 248 | 8.0 | 21.0 | 0.01 | 0.01 | 0.01 | 92 | 1008.6 |
| 20260506213050 | 55 | 222 | 9.0 | 20.0 | 0.00 | 0.00 | 0.00 | 91 | 1008.8 |
| 20260506212538 | 55 | 202 | 10.0 | 20.0 | 0.00 | 0.00 | 0.00 | 91 | 1008.7 |
| 20260506212040 | 55 | 159 | 10.0 | 19.0 | 0.00 | 0.00 | 0.00 | 91 | 1008.8 |
| 20260506211550 | 55 | 198 | 10.0 | 21.0 | 0.00 | 0.00 | 0.00 | 91 | 1008.6 |
| 20260506211038 | 55 | 188 | 10.0 | 22.0 | 0.00 | 0.00 | 0.00 | 90 | 1008.8 |
| 20260506210539 | 55 | 180 | 10.0 | 22.0 | 0.00 | 0.00 | 0.00 | 90 | 1008.6 |
| 20260506210048 | 55 | 206 | 10.0 | 31.0 | 0.00 | 0.00 | 0.00 | 90 | 1008.7 |
| 20260506205535 | 55 | 209 | 9.0 | 31.0 | 0.00 | 0.00 | 0.00 | 90 | 1008.6 |
| 20260506205036 | 55 | 144 | 9.0 | 20.0 | 0.00 | 0.00 | 0.00 | 91 | 1008.7 |
| 20260506204546 | 55 | 182 | 6.0 | 20.0 | 0.00 | 0.00 | 0.00 | 91 | 1008.7 |
| 20260506204037 | 55 | 138 | 10.0 | 25.0 | 0.00 | 0.00 | 0.00 | 91 | 1008.7 |
| 20260506203537 | 55 | 135 | 10.0 | 25.0 | 0.00 | 0.00 | 0.00 | 91 | 1008.7 |
| 20260506203047 | 55 | 192 | 10.0 | 19.0 | 0.00 | 0.00 | 0.00 | 91 | 1008.6 |
| 20260506202536 | 55 | 159 | 11.0 | 19.0 | 0.00 | 0.00 | 0.00 | 91 | 1008.8 |
| 20260506202037 | 55 | 172 | 10.0 | 22.0 | 0.00 | 0.00 | 0.00 | 91 | 1008.9 |
| 20260506201547 | 55 | 184 | 10.0 | 22.0 | 0.00 | 0.00 | 0.00 | 91 | 1008.8 |
| 20260506201035 | 55 | 177 | 9.0 | 18.0 | 0.00 | 0.00 | 0.00 | 91 | 1008.8 |
| 20260506200536 | 55 | 194 | 8.0 | 22.0 | 0.00 | 0.00 | 0.00 | 91 | 1009.0 |
| 20260506200130 | 55 | 200 | 11.0 | 22.0 | 0.00 | 0.00 | 0.00 | 91 | 1009.1 |
| 20260506195537 | 55 | 190 | 8.0 | 21.0 | 0.00 | 0.00 | 0.00 | 91 | 1009.3 |
| 20260506195038 | 55 | 227 | 9.0 | 21.0 | 0.00 | 0.00 | 0.00 | 91 | 1009.2 |
| 20260506194550 | 55 | 177 | 9.0 | 21.0 | 0.00 | 0.00 | 0.00 | 91 | 1009.3 |
| 20260506194036 | 55 | 211 | 10.0 | 21.0 | 0.00 | 0.00 | 0.00 | 91 | 1009.3 |
| 20260506193540 | 55 | 182 | 10.0 | 29.0 | 0.00 | 0.00 | 0.00 | 90 | 1009.5 |
| 20260506193046 | 55 | 204 | 9.0 | 29.0 | 0.00 | 0.00 | 0.00 | 89 | 1009.5 |
| 20260506192538 | 55 | 157 | 8.0 | 19.0 | 0.00 | 0.00 | 0.00 | 89 | 1009.6 |
| 20260506192038 | 55 | 171 | 9.0 | 20.0 | 0.00 | 0.00 | 0.00 | 88 | 1009.6 |
| 20260506191547 | 56 | 153 | 8.0 | 20.0 | 0.00 | 0.00 | 0.00 | 88 | 1009.6 |
| 20260506191037 | 56 | 186 | 9.0 | 25.0 | 0.00 | 0.00 | 0.00 | 88 | 1009.7 |
| 20260506190538 | 56 | 227 | 11.0 | 25.0 | 0.00 | 0.00 | 0.00 | 87 | 1009.8 |
| 20260506190046 | 56 | 196 | 9.0 | 21.0 | 0.00 | 0.00 | 0.00 | 87 | 1009.9 |
| 20260506185538 | 56 | 186 | 9.0 | 21.0 | 0.00 | 0.00 | 0.00 | 87 | 1010.0 |
| 20260506185039 | 56 | 208 | 11.0 | 20.0 | 0.00 | 0.00 | 0.00 | 86 | 1009.9 |
| 20260506184550 | 56 | 230 | 11.0 | 23.0 | 0.00 | 0.00 | 0.00 | 87 | 1009.9 |
| 20260506184037 | 56 | 188 | 10.0 | 23.0 | 0.00 | 0.00 | 0.00 | 87 | 1009.8 |
| 20260506183538 | 56 | 182 | 11.0 | 23.0 | 0.00 | 0.00 | 0.00 | 87 | 1009.9 |
| 20260506183052 | 56 | 197 | 11.0 | 23.0 | 0.00 | 0.00 | 0.00 | 87 | 1010.0 |
| 20260506182537 | 56 | 157 | 12.0 | 22.0 | 0.00 | 0.00 | 0.00 | 87 | 1010.0 |
| 20260506182037 | 56 | 168 | 10.0 | 23.0 | 0.00 | 0.00 | 0.00 | 87 | 1010.1 |
| 20260506181549 | 56 | 182 | 10.0 | 23.0 | 0.00 | 0.00 | 0.00 | 86 | 1010.1 |
| 20260506181037 | 57 | 200 | 10.0 | 21.0 | 0.00 | 0.00 | 0.00 | 86 | 1010.2 |
| 20260506180538 | 57 | 188 | 10.0 | 25.0 | 0.00 | 0.00 | 0.00 | 86 | 1010.3 |
| 20260506180049 | 57 | 215 | 9.0 | 25.0 | 0.00 | 0.00 | 0.00 | 86 | 1010.3 |
| 20260506175535 | 57 | 200 | 11.0 | 31.0 | 0.00 | 0.00 | 0.00 | 86 | 1010.5 |
| 20260506175037 | 57 | 180 | 13.0 | 31.0 | 0.00 | 0.00 | 0.00 | 86 | 1010.6 |
| 20260506174547 | 57 | 202 | 10.0 | 23.0 | 0.00 | 0.00 | 0.00 | 86 | 1010.7 |
| 20260506174039 | 57 | 188 | 12.0 | 27.0 | 0.00 | 0.00 | 0.00 | 86 | 1010.9 |
| 20260506173538 | 57 | 201 | 12.0 | 27.0 | 0.00 | 0.00 | 0.00 | 86 | 1010.9 |
| 20260506173053 | 57 | 218 | 12.0 | 22.0 | 0.00 | 0.00 | 0.00 | 86 | 1011.0 |
| 20260506172536 | 57 | 197 | 12.0 | 24.0 | 0.00 | 0.00 | 0.00 | 86 | 1010.8 |
| 20260506172038 | 57 | 188 | 11.0 | 24.0 | 0.00 | 0.00 | 0.00 | 86 | 1011.1 |
| 20260506171557 | 57 | 213 | 11.0 | 24.0 | 0.00 | 0.00 | 0.00 | 86 | 1011.1 |
| 20260506171038 | 57 | 192 | 10.0 | 24.0 | 0.00 | 0.00 | 0.00 | 86 | 1011.2 |
| 20260506170538 | 57 | 208 | 12.0 | 24.0 | 0.00 | 0.00 | 0.00 | 85 | 1011.1 |
| 20260506170042 | 58 | 192 | 10.0 | 24.0 | 0.00 | 0.00 | 0.00 | 84 | 1011.1 |
| 20260506165537 | 58 | 196 | 11.0 | 29.0 | 0.00 | 0.00 | 0.00 | 84 | 1011.2 |
| 20260506165039 | 58 | 220 | 10.0 | 31.0 | 0.00 | 0.00 | 0.00 | 84 | 1011.3 |
| 20260506164542 | 58 | 189 | 12.0 | 31.0 | 0.00 | 0.00 | 0.00 | 85 | 1011.4 |
| 20260506164037 | 58 | 221 | 13.0 | 28.0 | 0.00 | 0.00 | 0.00 | 84 | 1011.3 |
| 20260506163537 | 58 | 177 | 9.0 | 21.0 | 0.00 | 0.00 | 0.00 | 85 | 1011.7 |
| 20260506163050 | 58 | 204 | 11.0 | 21.0 | 0.00 | 0.00 | 0.00 | 86 | 1011.7 |
| 20260506162538 | 58 | 166 | 8.0 | 22.0 | 0.00 | 0.00 | 0.00 | 86 | 1011.6 |
| 20260506162039 | 57 | 178 | 11.0 | 23.0 | 0.00 | 0.00 | 0.00 | 86 | 1011.7 |
| 20260506161553 | 57 | 187 | 10.0 | 24.0 | 0.00 | 0.00 | 0.00 | 86 | 1011.6 |
| 20260506161035 | 57 | 179 | 11.0 | 24.0 | 0.00 | 0.00 | 0.00 | 86 | 1011.7 |
| 20260506160540 | 57 | 186 | 12.0 | 22.0 | 0.00 | 0.00 | 0.00 | 86 | 1011.7 |
| 20260506160046 | 57 | 173 | 9.0 | 21.0 | 0.00 | 0.00 | 0.00 | 86 | 1011.9 |
| 20260506155538 | 57 | 178 | 9.0 | 24.0 | 0.00 | 0.00 | 0.00 | 85 | 1011.9 |
| 20260506155034 | 57 | 141 | 13.0 | 24.0 | 0.00 | 0.00 | 0.00 | 84 | 1012.0 |
| 20260506154547 | 58 | 184 | 10.0 | 21.0 | 0.00 | 0.00 | 0.00 | 84 | 1012.1 |
| 20260506154038 | 59 | 213 | 11.0 | 27.0 | 0.00 | 0.00 | 0.00 | 84 | 1012.2 |
| 20260506153537 | 59 | 200 | 13.0 | 27.0 | 0.00 | 0.00 | 0.00 | 84 | 1012.2 |
| 20260506153046 | 59 | 185 | 12.0 | 26.0 | 0.00 | 0.00 | 0.00 | 83 | 1012.2 |
| 20260506152538 | 60 | 206 | 12.0 | 26.0 | 0.00 | 0.00 | 0.00 | 83 | 1012.2 |
| 20260506152037 | 60 | 165 | 11.0 | 24.0 | 0.00 | 0.00 | 0.00 | 84 | 1012.0 |
| 20260506151549 | 59 | 205 | 13.0 | 24.0 | 0.00 | 0.00 | 0.00 | 84 | 1012.1 |
| 20260506151038 | 59 | 184 | 11.0 | 25.0 | 0.00 | 0.00 | 0.00 | 84 | 1012.1 |
| 20260506150537 | 59 | 177 | 12.0 | 25.0 | 0.00 | 0.00 | 0.00 | 84 | 1012.1 |
| 20260506150047 | 60 | 173 | 11.0 | 23.0 | 0.00 | 0.00 | 0.00 | 83 | 1012.3 |
| 20260506145535 | 60 | 195 | 8.0 | 20.0 | 0.00 | 0.00 | 0.00 | 85 | 1012.3 |
| 20260506145037 | 59 | 172 | 9.0 | 20.0 | 0.00 | 0.00 | 0.00 | 86 | 1012.5 |
| 20260506144547 | 58 | 205 | 7.0 | 21.0 | 0.00 | 0.00 | 0.00 | 86 | 1012.4 |
| 20260506144037 | 58 | 219 | 8.0 | 21.0 | 0.00 | 0.00 | 0.00 | 86 | 1012.4 |
| 20260506143537 | 58 | 215 | 7.0 | 22.0 | 0.00 | 0.00 | 0.00 | 86 | 1012.4 |
| 20260506143049 | 57 | 167 | 10.0 | 21.0 | 0.00 | 0.00 | 0.00 | 87 | 1012.2 |
| 20260506142538 | 57 | 142 | 8.0 | 25.0 | 0.00 | 0.00 | 0.00 | 87 | 1012.2 |
| 20260506142036 | 57 | 202 | 13.0 | 25.0 | 0.00 | 0.00 | 0.00 | 85 | 1012.2 |
| 20260506141549 | 58 | 194 | 12.0 | 25.0 | 0.00 | 0.00 | 0.00 | 85 | 1012.1 |
| 20260506141036 | 58 | 186 | 9.0 | 23.0 | 0.00 | 0.00 | 0.00 | 86 | 1011.9 |
| 20260506140538 | 58 | 206 | 9.0 | 22.0 | 0.00 | 0.00 | 0.00 | 86 | 1011.9 |
| 20260506140049 | 57 | 156 | 9.0 | 22.0 | 0.00 | 0.00 | 0.00 | 86 | 1012.1 |
| 20260506135538 | 57 | 170 | 11.0 | 22.0 | 0.00 | 0.00 | 0.00 | 85 | 1011.9 |
| 20260506135037 | 58 | 140 | 6.0 | 17.0 | 0.00 | 0.00 | 0.00 | 86 | 1011.9 |
| 20260506134611 | 58 | 223 | 7.0 | 17.0 | 0.00 | 0.00 | 0.00 | 86 | 1012.3 |
| 20260506134037 | 58 | 242 | 7.0 | 19.0 | 0.00 | 0.00 | 0.00 | 86 | 1012.4 |
| 20260506133535 | 58 | 198 | 6.0 | 19.0 | 0.00 | 0.00 | 0.00 | 86 | 1012.3 |
| 20260506133045 | 58 | 202 | 8.0 | 20.0 | 0.00 | 0.00 | 0.00 | 86 | 1012.4 |
| 20260506132537 | 58 | 244 | 9.0 | 26.0 | 0.00 | 0.00 | 0.00 | 86 | 1012.4 |
| 20260506132035 | 58 | 163 | 9.0 | 26.0 | 0.00 | 0.00 | 0.00 | 86 | 1012.5 |
| 20260506131601 | 58 | 159 | 10.0 | 23.0 | 0.00 | 0.00 | 0.00 | 85 | 1012.4 |
| 20260506131037 | 58 | 181 | 9.0 | 23.0 | 0.00 | 0.00 | 0.00 | 86 | 1012.4 |
| 20260506130536 | 58 | 180 | 9.0 | 21.0 | 0.00 | 0.00 | 0.00 | 86 | 1012.3 |
| 20260506130041 | 58 | 182 | 9.0 | 22.0 | 0.00 | 0.00 | 0.00 | 86 | 1012.3 |
| 20260506125536 | 57 | 152 | 8.0 | 24.0 | 0.00 | 0.00 | 0.00 | 87 | 1012.3 |
| 20260506125035 | 57 | 207 | 10.0 | 24.0 | 0.00 | 0.00 | 0.00 | 88 | 1012.4 |
| 20260506124548 | 57 | 187 | 12.0 | 23.0 | 0.00 | 0.00 | 0.00 | 87 | 1012.4 |
| 20260506124037 | 57 | 225 | 9.0 | 18.0 | 0.00 | 0.00 | 0.00 | 87 | 1012.4 |
| 20260506123537 | 57 | 155 | 9.0 | 18.0 | 0.00 | 0.00 | 0.00 | 88 | 1012.5 |
| 20260506123049 | 57 | 148 | 7.0 | 23.0 | 0.00 | 0.00 | 0.00 | 89 | 1012.4 |
| 20260506122538 | 56 | 213 | 9.0 | 25.0 | 0.00 | 0.00 | 0.00 | 89 | 1012.5 |
| 20260506122039 | 56 | 169 | 10.0 | 25.0 | 0.00 | 0.00 | 0.00 | 89 | 1012.4 |
| 20260506121545 | 56 | 164 | 10.0 | 23.0 | 0.00 | 0.00 | 0.00 | 89 | 1012.3 |
| 20260506121037 | 56 | 162 | 9.0 | 25.0 | 0.00 | 0.00 | 0.00 | 89 | 1012.2 |
| 20260506120537 | 56 | 175 | 10.0 | 25.0 | 0.00 | 0.00 | 0.00 | 89 | 1012.4 |
| 20260506120047 | 56 | 209 | 10.0 | 20.0 | 0.00 | 0.00 | 0.00 | 90 | 1012.4 |
| 20260506115537 | 56 | 184 | 12.0 | 24.0 | 0.00 | 0.00 | 0.00 | 90 | 1012.4 |
| 20260506115036 | 56 | 150 | 10.0 | 24.0 | 0.00 | 0.00 | 0.00 | 90 | 1012.3 |
| 20260506114547 | 56 | 184 | 9.0 | 19.0 | 0.00 | 0.00 | 0.00 | 91 | 1012.4 |
| 20260506114037 | 55 | 171 | 9.0 | 23.0 | 0.00 | 0.00 | 0.00 | 91 | 1012.5 |
| 20260506113537 | 55 | 139 | 11.0 | 23.0 | 0.00 | 0.00 | 0.00 | 91 | 1012.5 |
| 20260506113048 | 55 | 201 | 11.0 | 21.0 | 0.00 | 0.00 | 0.00 | 91 | 1012.4 |
| 20260506112538 | 55 | 199 | 11.0 | 21.0 | 0.00 | 0.00 | 0.00 | 92 | 1012.4 |
| 20260506112036 | 54 | 207 | 9.0 | 21.0 | 0.00 | 0.00 | 0.00 | 93 | 1012.4 |
| 20260506111539 | 54 | 156 | 9.0 | 21.0 | 0.00 | 0.00 | 0.00 | 93 | 1012.4 |
| 20260506111037 | 54 | 224 | 9.0 | 18.0 | 0.00 | 0.00 | 0.00 | 92 | 1012.4 |
| 20260506110537 | 54 | 197 | 8.0 | 19.0 | 0.00 | 0.00 | 0.00 | 92 | 1012.3 |
| 20260506110051 | 54 | 193 | 8.0 | 19.0 | 0.00 | 0.00 | 0.00 | 92 | 1012.3 |
| 20260506105536 | 54 | 216 | 8.0 | 18.0 | 0.00 | 0.00 | 0.00 | 93 | 1012.3 |
| 20260506105038 | 54 | 199 | 7.0 | 21.0 | 0.00 | 0.00 | 0.00 | 93 | 1012.3 |
| 20260506104544 | 54 | 172 | 10.0 | 21.0 | 0.00 | 0.00 | 0.00 | 93 | 1012.3 |
| 20260506104037 | 54 | 174 | 9.0 | 21.0 | 0.00 | 0.00 | 0.00 | 93 | 1012.2 |
| 20260506103537 | 54 | 151 | 10.0 | 22.0 | 0.00 | 0.00 | 0.00 | 93 | 1012.3 |
| 20260506103049 | 54 | 221 | 10.0 | 22.0 | 0.00 | 0.00 | 0.00 | 93 | 1012.3 |
| 20260506102537 | 54 | 200 | 10.0 | 19.0 | 0.00 | 0.00 | 0.00 | 93 | 1012.3 |
| 20260506102039 | 54 | 152 | 9.0 | 21.0 | 0.00 | 0.00 | 0.00 | 94 | 1012.3 |
| 20260506101541 | 54 | 172 | 10.0 | 21.0 | 0.00 | 0.00 | 0.00 | 94 | 1012.2 |
| 20260506101037 | 53 | 185 | 8.0 | 22.0 | 0.00 | 0.00 | 0.00 | 93 | 1012.1 |
| 20260506100537 | 53 | 135 | 10.0 | 23.0 | 0.00 | 0.00 | 0.00 | 93 | 1012.2 |
| 20260506100048 | 53 | 148 | 10.0 | 23.0 | 0.00 | 0.00 | 0.00 | 94 | 1012.2 |
| 20260506095538 | 53 | 196 | 9.0 | 20.0 | 0.00 | 0.00 | 0.00 | 93 | 1012.1 |
| 20260506095042 | 53 | 203 | 10.0 | 27.0 | 0.00 | 0.00 | 0.00 | 93 | 1012.0 |
| 20260506094547 | 53 | 210 | 10.0 | 27.0 | 0.00 | 0.00 | 0.00 | 93 | 1012.0 |
| 20260506094039 | 53 | 196 | 12.0 | 24.0 | 0.00 | 0.00 | 0.00 | 93 | 1011.9 |
| 20260506093537 | 53 | 144 | 10.0 | 23.0 | 0.00 | 0.00 | 0.00 | 94 | 1012.1 |
| 20260506093052 | 53 | 153 | 9.0 | 21.0 | 0.00 | 0.00 | 0.00 | 93 | 1012.1 |
| 20260506092536 | 53 | 188 | 9.0 | 20.0 | 0.00 | 0.00 | 0.00 | 94 | 1012.2 |
| 20260506092039 | 53 | 194 | 10.0 | 20.0 | 0.00 | 0.00 | 0.00 | 94 | 1012.3 |
| 20260506091543 | 53 | 192 | 9.0 | 20.0 | 0.00 | 0.00 | 0.00 | 94 | 1012.4 |
| 20260506091036 | 53 | 188 | 9.0 | 20.0 | 0.00 | 0.00 | 0.00 | 94 | 1012.4 |
| 20260506090536 | 53 | 186 | 7.0 | 18.0 | 0.00 | 0.00 | 0.00 | 94 | 1012.4 |
| 20260506090042 | 54 | 283 | 9.0 | 18.0 | 0.00 | 0.00 | 0.00 | 94 | 1012.4 |
| 20260506085535 | 54 | 175 | 7.0 | 20.0 | 0.00 | 0.00 | 0.00 | 94 | 1012.5 |
| 20260506085037 | 53 | 215 | 9.0 | 20.0 | 0.00 | 0.00 | 0.00 | 94 | 1012.4 |
| 20260506084548 | 54 | 173 | 8.0 | 19.0 | 0.00 | 0.00 | 0.00 | 94 | 1012.5 |
| 20260506084037 | 53 | 198 | 10.0 | 19.0 | 0.00 | 0.00 | 0.00 | 94 | 1012.5 |
| 20260506083537 | 53 | 173 | 8.0 | 18.0 | 0.00 | 0.00 | 0.00 | 94 | 1012.6 |
| 20260506083107 | 53 | 209 | 8.0 | 17.0 | 0.00 | 0.00 | 0.00 | 94 | 1012.5 |
| 20260506082537 | 53 | 175 | 10.0 | 23.0 | 0.00 | 0.00 | 0.00 | 94 | 1012.6 |
| 20260506082036 | 53 | 198 | 7.0 | 25.0 | 0.00 | 0.00 | 0.00 | 94 | 1012.5 |
| 20260506081547 | 53 | 172 | 10.0 | 25.0 | 0.00 | 0.00 | 0.00 | 94 | 1012.6 |
| 20260506081036 | 53 | 198 | 9.0 | 18.0 | 0.00 | 0.00 | 0.00 | 94 | 1012.7 |
| 20260506080538 | 53 | 167 | 10.0 | 23.0 | 0.00 | 0.00 | 0.00 | 94 | 1012.8 |
| 20260506073044 | 53 | 197 | 10.0 | 20.0 | 0.00 | 0.00 | 0.00 | 93 | 1012.6 |
| 20260506072537 | 53 | 157 | 10.0 | 21.0 | 0.00 | 0.00 | 0.00 | 93 | 1012.7 |
| 20260506072037 | 54 | 205 | 9.0 | 21.0 | 0.00 | 0.00 | 0.00 | 93 | 1012.6 |
| 20260506071548 | 54 | 194 | 11.0 | 21.0 | 0.00 | 0.00 | 0.00 | 93 | 1012.7 |
| 20260506071038 | 54 | 192 | 9.0 | 20.0 | 0.00 | 0.00 | 0.00 | 93 | 1012.7 |
| 20260506070537 | 54 | 210 | 10.0 | 18.0 | 0.00 | 0.00 | 0.00 | 93 | 1012.7 |
| 20260506062037 | 54 | 182 | 11.0 | 19.0 | 0.00 | 0.00 | 0.00 | 92 | 1012.5 |
| 20260506061543 | 54 | 178 | 8.0 | 23.0 | 0.00 | 0.00 | 0.00 | 92 | 1012.5 |
| 20260506061037 | 54 | 165 | 9.0 | 23.0 | 0.00 | 0.00 | 0.00 | 92 | 1012.4 |
| 20260506060535 | 54 | 221 | 9.0 | 23.0 | 0.00 | 0.00 | 0.00 | 92 | 1012.5 |
| 20260506051036 | 54 | 221 | 9.0 | 20.0 | 0.00 | 0.00 | 0.00 | 92 | 1012.7 |
| 20260506050536 | 54 | 248 | 8.0 | 20.0 | 0.00 | 0.00 | 0.00 | 92 | 1012.9 |
| 20260506045036 | 53 | 167 | 8.0 | 21.0 | 0.00 | 0.00 | 0.00 | 92 | 1013.0 |
| 20260506044550 | 53 | 201 | 10.0 | 21.0 | 0.00 | 0.00 | 0.00 | 92 | 1012.9 |
| 20260506044036 | 53 | 225 | 8.0 | 19.0 | 0.00 | 0.00 | 0.00 | 92 | 1012.9 |
| 20260506043540 | 53 | 198 | 8.0 | 20.0 | 0.00 | 0.00 | 0.00 | 92 | 1013.0 |
| 20260506043049 | 53 | 175 | 9.0 | 24.0 | 0.00 | 0.00 | 0.00 | 92 | 1013.1 |
| 20260506042537 | 53 | 173 | 8.0 | 24.0 | 0.00 | 0.00 | 0.00 | 92 | 1013.2 |
| 20260506042037 | 53 | 201 | 8.0 | 19.0 | 0.00 | 0.00 | 0.00 | 92 | 1013.1 |
| 20260506041546 | 53 | 221 | 6.0 | 18.0 | 0.00 | 0.00 | 0.00 | 92 | 1013.1 |
| 20260506041036 | 53 | 167 | 9.0 | 21.0 | 0.00 | 0.00 | 0.00 | 92 | 1013.1 |